This is the latest recevied weather packets stored in our database for station/object KC7WRB. If no packets are shown the sender has not sent any weather packets the latest 10 day(s).
| Time | Temp. | Humidity | Pressure | Rain* | Wind** | Luminosity | Snow |
|---|---|---|---|---|---|---|---|
| 1778354771 | 23.89° C | 17% | 1020.5 hPa | 0 mm | - | 939 W/m² | - |
| 1778354466 | 23.89° C | 17% | 1020.7 hPa | 0 mm | - | 938 W/m² | - |
| 1778354161 | 23.89° C | 17% | 1020.9 hPa | 0 mm | - | 935 W/m² | - |
| 1778353857 | 23.89° C | 17% | 1021 hPa | 0 mm | - | 933 W/m² | - |
| 1778353554 | 23.33° C | 18% | 1021 hPa | 0 mm | - | 931 W/m² | - |
| 1778353252 | 23.89° C | 17% | 1021 hPa | 0 mm | - | 928 W/m² | - |
| 1778352949 | 23.33° C | 19% | 1021.2 hPa | 0 mm | - | 923 W/m² | - |
| 1778352645 | 23.33° C | 19% | 1021.2 hPa | 0 mm | - | 919 W/m² | - |
| 1778352343 | 23.89° C | 19% | 1021.3 hPa | 0 mm | - | 913 W/m² | - |
| 1778352039 | 23.33° C | 19% | 1021.3 hPa | 0 mm | - | 907 W/m² | - |
| 1778351734 | 22.78° C | 20% | 1021.5 hPa | 0 mm | - | 902 W/m² | - |
| 1778351431 | 23.33° C | 19% | 1021.4 hPa | 0 mm | - | 894 W/m² | - |
| 1778351127 | 22.78° C | 20% | 1021.2 hPa | 0 mm | - | 887 W/m² | - |
| 1778350824 | 22.78° C | 20% | 1021.4 hPa | 0 mm | - | 879 W/m² | - |
| 1778350523 | 23.33° C | 19% | 1021.4 hPa | 0 mm | - | 870 W/m² | - |
| 1778350220 | 22.78° C | 21% | 1021.5 hPa | 0 mm | - | 862 W/m² | - |
| 1778349915 | 22.22° C | 21% | 1021.6 hPa | 0 mm | - | 854 W/m² | - |
| 1778349613 | 22.22° C | 21% | 1021.5 hPa | 0 mm | - | 845 W/m² | - |
| 1778349308 | 21.67° C | 22% | 1021.5 hPa | 0 mm | - | 834 W/m² | - |
| 1778349005 | 22.22° C | 22% | 1021.6 hPa | 0 mm | - | 826 W/m² | - |
| 1778348701 | 22.22° C | 22% | 1021.7 hPa | 0 mm | - | 817 W/m² | - |
| 1778348396 | 22.22° C | 22% | 1021.6 hPa | 0 mm | - | 806 W/m² | - |
| 1778348090 | 21.67° C | 24% | 1021.7 hPa | 0 mm | - | 795 W/m² | - |
| 1778347787 | 21.67° C | 23% | 1022 hPa | 0 mm | - | 784 W/m² | - |
| 1778347484 | 21.67° C | 22% | 1021.7 hPa | 0 mm | - | 773 W/m² | - |
* Rain latest hour (hover to see other rain measurements)
** Current wind speed in m/s (hover to see current wind gust speed)